SYRACUSE 3A

Last updated on Wed Mar 11 2026 00:02:51 GMT+0000 (Coordinated Universal Time)

1 28885U 05041B 26069.51293681 .00000132 00000+0 00000+0 0 9993 2 28885 4.3910 77.0597 0003676 277.0712 44.9119 1.00274308 74759
UTC large
Height (km)
Speed (km/s)
/
Latitude / Longitude
Inclination (degrees)
Orbital Period (minutes)
Azimuth
Elevation
Range (km)
Doppler Factor

Next 0 passes for location: London (51.5072 / 0.1276)

Sorry there are no passes over London.